Погода в Аммане

Иордания     31°57′19″N   35°53′44″E
темп.,
°C
ветер,
м/с
пор.,
м/с
влажн.,
%
обл.,
%
осадки,
мм/ч
давл.,
гПа
погр.,
м
19 июня, сб
сб1900:00+17зсз45650 0.0 101372
03:00+16з44710 0.0 101257
06:00+15з45740 0.0 101370
09:00+21зсз67470 0.0 1012490
12:00+25зсз77350 0.0 1012866
15:00+28зсз77280 0.0 10101212
18:00+25зсз77350 0.0 1010989
21:00+20зсз34560 0.0 101278
20 июня, вс
вс2000:00+17зсз33640 0.0 101228
03:00+16з33610 0.0 101220
06:00+15з22610 0.0 101213
09:00+22сз34250 0.0 1012451
12:00+28зсз33140 0.0 10111086
15:00+29зсз55140 0.0 10101320
18:00+28зсз76260 0.0 10091213
21:00+21зсз34460 0.0 101167
21 июня, пн
пн2100:00+19зсз22500 0.0 101212
03:00+19з33360 0.0 101122
06:00+18з33380 0.0 101225
09:00+24зсз35230 0.0 1012576
12:00+28з78200 0.0 10111254
15:00+29зсз66210 0.0 10101758
18:00+27зсз77270 0.0 10101503
21:00+22зсз33470 0.0 101232
22 июня, вт
вт2200:00+20зсз33580 0.0 101223
03:00+19зсз33570 0.0 101124
06:00+18з22560 0.0 101211
09:00+24з34390 0.0 1012636
12:00+28з67280 0.0 10121390
15:00+30з67230 0.0 10101713
18:00+28зсз76310 0.0 10101221
21:00+23зсз45450 0.0 101280
23 июня, ср
ср2300:00+20зсз11570 0.0 101211
03:00+19з22520 0.0 101211
06:00+19з22490 0.0 101311
09:00+25зсз34230 0.0 1013470
12:00+30з44160 0.0 10121166
15:00+32з55160 0.0 10101548
18:00+31зсз55170 0.0 10101265
21:00+25сз33380 0.0 101128